Back to catalog

STARLINK-36723

AliveCommunicationsVLEO
NORAD 67915·PAYLOAD·🇺🇸 United States

Launched Feb 22, 2026 from Vandenberg Space Force Base

Loading…

Next Passes (next 24 hours)

TLE

FreshSource: CelesTrak SupGP

Epoch: Sep 14, 2026, 20:57 UTC

1 67915C 26036M   26257.87340278  .00120410  00000+0  43638-2 0  2576
2 67915  43.0031 256.7261 0001456 267.4444 202.0258 15.27500231    13

Track STARLINK-36723 in real time with AllMySat

Download on the App Store